Date String (YYYY-MM-DD hh:mm:ss) UTC,Instrument flags,Ambient pressure (hPa),Sample flow (lpm),Bypass flow (lpm),Sample temperature (°C),Ambient temperature (°C),ASC tube jacket temperature (°C),LED temperature (°C),Box temperature (°C),Sample RH (%),Span deviation,Mass concentration (μg/m³),Mass concentration (μg/m³),Mass concentration (μg/m³)
DateTimeUTC,F1_M11,P_M11,Q1_M11,Q2_M11,T1_M11,T2_M11,T3_M11,T4_M11,T5_M11,U1_M11,ZSPAN_M11,X0_M11,X2_M11,X1_M11
2022-05-17 17:00:00,,0823.0,4.99,0.00,29.3,28.0,00.0,38.2,31.3,17.5,0000.0,0028.47,0007.16,0004.13
2022-05-17 17:01:00,,0823.0,5.01,0.00,29.3,28.1,00.0,38.2,31.3,17.7,0000.0,0028.44,0007.07,0004.12
2022-05-17 17:02:00,,0823.0,4.98,0.00,29.3,27.4,00.0,38.2,31.3,17.3,0000.0,0027.22,0007.05,0004.13
2022-05-17 17:03:00,,0823.0,5.00,0.00,29.3,25.3,00.0,38.1,31.2,17.3,0000.0,0027.47,0007.03,0004.15
2022-05-17 17:04:00,,0822.9,5.00,0.00,29.2,25.3,00.0,38.1,31.0,17.4,0000.0,0027.08,0006.95,0004.18
2022-05-17 17:05:00,,0823.0,4.99,0.00,29.2,26.0,00.0,38.1,31.0,18.1,0000.0,0026.58,0006.98,0004.20
2022-05-17 17:06:00,,0823.0,5.01,0.00,29.2,26.4,00.0,38.1,31.1,17.7,0000.0,0026.80,0006.93,0004.21
2022-05-17 17:07:00,,0823.0,5.00,0.00,29.2,26.8,00.0,38.1,31.1,17.6,0000.0,0027.89,0006.90,0004.23
2022-05-17 17:08:00,,0823.0,5.00,0.00,29.2,27.1,00.0,38.1,31.1,17.9,0000.0,0028.71,0006.94,0004.23
2022-05-17 17:09:00,,0823.0,5.01,0.00,29.2,27.5,00.0,38.1,31.2,17.2,0000.0,0030.30,0006.90,0004.21
2022-05-17 17:10:00,,0823.1,4.99,0.00,29.3,27.8,00.0,38.1,31.2,17.0,0000.0,0031.32,0006.87,0004.20
2022-05-17 17:11:00,,0823.1,5.00,0.00,29.3,27.9,00.0,38.1,31.2,17.0,0000.0,0030.26,0006.80,0004.19
2022-05-17 17:12:00,,0823.1,5.01,0.00,29.3,26.4,00.0,38.1,31.2,16.9,0000.0,0029.34,0006.81,0004.20
2022-05-17 17:13:00,,0823.1,5.00,0.00,29.2,25.1,00.0,38.1,30.9,17.6,0000.0,0028.99,0006.83,0004.20
2022-05-17 17:14:00,,0823.1,4.99,0.00,29.2,25.6,00.0,38.0,30.9,17.1,0000.0,0029.30,0006.82,0004.20
2022-05-17 17:15:00,,0823.1,5.00,0.00,29.2,26.2,00.0,38.1,30.9,17.3,0000.0,0029.41,0006.86,0004.18
2022-05-17 17:16:00,,0823.1,5.01,0.00,29.1,26.7,00.0,38.1,31.0,16.6,0000.0,0029.62,0006.81,0004.15
2022-05-17 17:17:00,,0823.1,5.01,0.00,29.2,27.1,00.0,38.1,31.0,16.7,0000.0,0029.37,0006.77,0004.13
2022-05-17 17:18:00,,0823.1,4.99,0.00,29.2,27.5,00.0,38.1,31.1,16.9,0000.0,0029.34,0006.72,0004.10
2022-05-17 17:19:00,,0823.1,5.00,0.00,29.2,27.8,00.0,38.1,31.2,16.3,0000.0,0028.64,0006.69,0004.09
2022-05-17 17:20:00,,0823.2,5.00,0.00,29.3,27.9,00.0,38.1,31.2,16.5,0000.0,0028.50,0006.72,0004.10
2022-05-17 17:21:00,,0823.2,5.00,0.00,29.3,26.6,00.0,38.1,31.2,16.4,0000.0,0027.19,0006.71,0004.10
2022-05-17 17:22:00,,0823.1,5.00,0.00,29.2,25.3,00.0,38.1,31.0,16.2,0000.0,0028.55,0006.78,0004.10
2022-05-17 17:23:00,,0823.1,5.00,0.00,29.2,25.7,00.0,38.0,31.0,16.7,0000.0,0029.37,0006.74,0004.09
2022-05-17 17:24:00,,0823.1,5.00,0.00,29.2,26.2,00.0,38.0,30.9,17.3,0000.0,0030.00,0006.69,0004.08
2022-05-17 17:25:00,,0823.1,4.99,0.00,29.1,26.6,00.0,38.1,31.0,16.3,0000.0,0028.95,0006.66,0004.06
2022-05-17 17:26:00,,0823.1,5.00,0.00,29.1,27.1,00.0,38.1,31.0,16.7,0000.0,0028.91,0006.58,0004.04
2022-05-17 17:27:00,,0823.2,4.99,0.00,29.2,27.4,00.0,38.1,31.1,17.0,0000.0,0029.31,0006.56,0004.04
2022-05-17 17:28:00,,0823.2,5.01,0.00,29.2,27.8,00.0,38.1,31.1,17.1,0000.0,0028.66,0006.58,0004.03
2022-05-17 17:29:00,,0823.1,4.99,0.00,29.2,28.0,00.0,38.1,31.2,16.5,0000.0,0025.85,0006.59,0004.02
2022-05-17 17:30:00,,0823.2,4.99,0.00,29.3,27.7,00.0,38.1,31.2,16.3,0000.0,0024.52,0006.55,0003.99
2022-05-17 17:31:00,,0823.2,5.01,0.00,29.3,25.7,00.0,38.1,31.1,16.4,0000.0,0024.60,0006.57,0003.97
2022-05-17 17:32:00,,0823.2,5.00,0.00,29.2,25.0,00.0,38.0,30.9,16.7,0000.0,0025.54,0006.61,0003.97
2022-05-17 17:33:00,,0823.2,5.01,0.00,29.1,25.7,00.0,38.0,30.9,16.9,0000.0,0026.40,0006.61,0003.95
2022-05-17 17:34:00,,0823.2,4.99,0.00,29.1,26.2,00.0,38.0,30.9,17.6,0000.0,0026.00,0006.56,0003.93
2022-05-17 17:35:00,,0823.2,5.00,0.00,29.1,26.7,00.0,38.0,30.9,17.5,0000.0,0024.93,0006.50,0003.92
2022-05-17 17:36:00,,0823.2,5.01,0.00,29.1,27.2,00.0,38.0,31.0,17.1,0000.0,0024.32,0006.52,0003.94
2022-05-17 17:37:00,,0823.2,4.99,0.00,29.2,27.5,00.0,38.1,31.1,17.1,0000.0,0023.15,0006.56,0003.95
2022-05-17 17:38:00,,0823.2,5.00,0.00,29.2,27.8,00.0,38.1,31.2,17.2,0000.0,0021.57,0006.57,0003.96
2022-05-17 17:39:00,,0823.2,5.01,0.00,29.2,26.9,00.0,38.1,31.1,17.8,0000.0,0022.04,0006.60,0003.97
2022-05-17 17:40:00,,0823.2,5.00,0.00,29.2,25.5,00.0,38.0,31.0,17.2,0000.0,0022.89,0006.61,0003.97
2022-05-17 17:41:00,,0823.2,5.00,0.00,29.1,25.6,00.0,38.0,30.9,16.7,0000.0,0023.41,0006.58,0003.98
2022-05-17 17:42:00,,0823.2,4.99,0.00,29.1,26.1,00.0,38.0,30.9,16.6,0000.0,0024.33,0006.52,0003.98
2022-05-17 17:43:00,,0823.2,4.99,0.00,29.1,26.5,00.0,38.0,30.9,16.2,0000.0,0023.75,0006.45,0003.97
2022-05-17 17:44:00,,0823.2,4.99,0.00,29.1,26.9,00.0,38.0,31.0,16.2,0000.0,0022.09,0006.39,0003.96
2022-05-17 17:45:00,,0823.2,5.02,0.00,29.1,27.3,00.0,38.0,31.0,16.7,0000.0,0021.17,0006.37,0003.94
2022-05-17 17:46:00,,0823.2,5.00,0.00,29.1,27.6,00.0,38.0,31.1,16.4,0000.0,0021.91,0006.36,0003.93
2022-05-17 17:47:00,,0823.2,5.00,0.00,29.2,27.8,00.0,38.1,31.1,16.5,0000.0,0023.37,0006.33,0003.90
2022-05-17 17:48:00,,0823.2,5.00,0.00,29.2,26.8,00.0,38.0,31.1,15.9,0000.0,0023.44,0006.30,0003.87
2022-05-17 17:49:00,,0823.1,5.00,0.00,29.1,24.8,00.0,38.0,30.9,15.9,0000.0,0023.17,0006.21,0003.84
2022-05-17 17:50:00,,0823.2,5.01,0.00,29.1,24.9,00.0,37.9,30.8,16.1,0000.0,0022.18,0006.11,0003.82
2022-05-17 17:51:00,,0823.1,5.00,0.00,29.0,25.5,00.0,37.9,30.8,16.6,0000.0,0021.36,0006.02,0003.82
2022-05-17 17:52:00,,0823.1,5.00,0.00,29.0,26.0,00.0,37.9,30.8,16.6,0000.0,0020.92,0006.04,0003.81
2022-05-17 17:53:00,,0823.2,5.00,0.00,29.0,26.4,00.0,37.9,30.8,16.2,0000.0,0019.21,0006.01,0003.81
2022-05-17 17:54:00,,0823.2,4.99,0.00,29.0,26.8,00.0,37.9,30.9,15.5,0000.0,0017.79,0005.98,0003.82
2022-05-17 17:55:00,,0823.2,5.00,0.00,29.0,27.2,00.0,37.9,30.9,15.7,0000.0,0017.11,0006.00,0003.84
2022-05-17 17:56:00,,0823.2,5.00,0.00,29.0,27.4,00.0,38.0,31.0,15.6,0000.0,0017.70,0006.02,0003.85
2022-05-17 17:57:00,,0823.2,5.00,0.00,29.1,27.7,00.0,38.0,31.0,15.5,0000.0,0018.19,0005.97,0003.87
2022-05-17 17:58:00,,0823.3,5.01,0.00,29.1,27.9,00.0,38.0,31.1,15.3,0000.0,0017.59,0005.90,0003.86
2022-05-17 17:59:00,,0823.2,5.00,0.00,29.2,28.1,00.0,38.0,31.1,15.5,0000.0,0017.97,0005.79,0003.84
